Track COSMOS 647 now! 10-day predictions COSMOS 647 is classified as:
1 7271U 74024G 21111.16853174 -.00000021 00000-0 -31835-4 0 9994 2 7271 74.0173 170.7930 0038639 136.7226 252.3620 12.52835671149491